Time,TemperatureF,DewpointF,PressureIn,WindDirection,WindDirectionDegrees,WindSpeedMPH,WindSpeedGustMPH,Humidity,HourlyPrecipIn,Conditions,Clouds,dailyrainin,SoftwareType,DateUTC
2013-04-23 00:02:00,68.5,65.5,30.03,SE,140,8.0,14.0,90,0.00,,,0.00,meteohub,2013-04-23 05:02:00,
2013-04-23 00:07:00,68.5,65.5,30.03,SE,130,9.0,13.0,90,0.00,,,0.00,meteohub,2013-04-23 05:07:00,
2013-04-23 00:12:00,68.5,65.5,30.03,SSE,164,9.0,13.0,90,0.00,,,0.00,meteohub,2013-04-23 05:12:00,
2013-04-23 00:17:00,68.5,65.8,30.03,SE,126,6.0,13.0,91,0.00,,,0.00,meteohub,2013-04-23 05:17:00,
2013-04-23 00:22:00,68.5,65.8,30.03,ESE,123,14.0,14.0,91,0.00,,,0.00,meteohub,2013-04-23 05:22:00,
2013-04-23 00:27:00,68.5,65.8,30.03,SE,126,4.0,14.0,91,0.00,,,0.00,meteohub,2013-04-23 05:27:00,
2013-04-23 00:32:00,68.5,65.8,30.03,ESE,107,5.0,14.0,91,0.00,,,0.00,meteohub,2013-04-23 05:32:00,
2013-04-23 00:37:00,68.5,65.8,30.03,South,171,4.0,14.0,91,0.00,,,0.00,meteohub,2013-04-23 05:37:00,
2013-04-23 00:42:00,68.5,65.5,30.03,SSE,153,3.0,9.0,90,0.00,,,0.00,meteohub,2013-04-23 05:42:00,
2013-04-23 00:47:00,68.5,65.5,30.03,SSE,151,3.0,9.0,90,0.00,,,0.00,meteohub,2013-04-23 05:47:00,
2013-04-23 00:52:00,68.5,65.5,30.03,ESE,112,5.0,15.0,90,0.00,,,0.00,meteohub,2013-04-23 05:52:00,
2013-04-23 00:57:00,68.5,65.5,30.03,ESE,102,2.0,15.0,90,0.00,,,0.00,meteohub,2013-04-23 05:57:00,
2013-04-23 01:02:00,68.5,65.5,30.02,SE,128,6.0,10.0,90,0.00,,,0.00,meteohub,2013-04-23 06:02:00,
2013-04-23 01:07:00,68.7,65.7,30.03,SE,134,6.0,9.0,90,0.00,,,0.00,meteohub,2013-04-23 06:07:00,
2013-04-23 01:12:00,68.7,65.7,30.02,SE,144,4.0,9.0,90,0.00,,,0.00,meteohub,2013-04-23 06:12:00,
2013-04-23 01:17:00,68.7,65.7,30.03,ESE,102,2.0,11.0,90,0.00,,,0.00,meteohub,2013-04-23 06:17:00,
2013-04-23 01:22:00,68.7,65.7,30.03,SE,126,6.0,11.0,90,0.00,,,0.00,meteohub,2013-04-23 06:22:00,
2013-04-23 01:27:00,68.7,65.7,30.03,ESE,109,5.0,11.0,90,0.00,,,0.00,meteohub,2013-04-23 06:27:00,
2013-04-23 01:32:00,68.7,65.7,30.02,SE,142,5.0,9.0,90,0.00,,,0.00,meteohub,2013-04-23 06:32:00,
2013-04-23 01:37:00,68.7,65.7,30.02,South,169,4.0,9.0,90,0.00,,,0.00,meteohub,2013-04-23 06:37:00,
2013-04-23 01:42:00,68.7,65.7,30.02,SE,138,2.0,8.0,90,0.00,,,0.00,meteohub,2013-04-23 06:42:00,
2013-04-23 01:47:00,68.7,65.7,30.02,ESE,120,2.0,9.0,90,0.00,,,0.00,meteohub,2013-04-23 06:47:00,
2013-04-23 01:52:00,68.7,65.7,30.02,SSE,155,4.0,9.0,90,0.00,,,0.00,meteohub,2013-04-23 06:52:00,
2013-04-23 01:57:00,68.7,66.0,30.02,ESE,123,1.0,9.0,91,0.00,,,0.00,meteohub,2013-04-23 06:57:00,
2013-04-23 02:02:00,68.7,66.0,30.02,SE,136,4.0,11.0,91,0.00,,,0.00,meteohub,2013-04-23 07:02:00,
2013-04-23 02:07:00,68.7,66.0,30.02,SE,132,3.0,11.0,91,0.00,,,0.00,meteohub,2013-04-23 07:07:00,
2013-04-23 02:12:00,68.7,66.0,30.02,ESE,123,3.0,10.0,91,0.00,,,0.00,meteohub,2013-04-23 07:12:00,
2013-04-23 02:17:00,68.7,66.0,30.02,SE,136,7.0,10.0,91,0.00,,,0.00,meteohub,2013-04-23 07:17:00,
2013-04-23 02:22:00,68.5,65.8,30.01,SE,145,5.0,11.0,91,0.00,,,0.00,meteohub,2013-04-23 07:22:00,
2013-04-23 02:27:00,68.5,65.8,30.01,ESE,122,5.0,11.0,91,0.00,,,0.00,meteohub,2013-04-23 07:27:00,
2013-04-23 02:32:00,68.5,65.8,30.01,SE,144,4.0,12.0,91,0.00,,,0.00,meteohub,2013-04-23 07:32:00,
2013-04-23 02:37:00,68.5,65.8,30.01,ESE,118,5.0,15.0,91,0.00,,,0.00,meteohub,2013-04-23 07:37:00,
2013-04-23 02:42:00,68.5,65.8,30.01,SE,129,8.0,15.0,91,0.00,,,0.00,meteohub,2013-04-23 07:42:00,
2013-04-23 02:47:00,68.5,65.8,30.01,SSE,149,5.0,15.0,91,0.00,,,0.00,meteohub,2013-04-23 07:47:00,
2013-04-23 02:52:00,68.4,65.7,30.01,ESE,109,7.0,14.0,91,0.00,,,0.00,meteohub,2013-04-23 07:52:00,
2013-04-23 02:57:00,68.2,65.5,30.01,SE,135,3.0,14.0,91,0.00,,,0.00,meteohub,2013-04-23 07:57:00,
2013-04-23 03:02:00,68.2,65.5,30.01,SE,139,0.0,13.0,91,0.00,,,0.00,meteohub,2013-04-23 08:02:00,
2013-04-23 03:07:00,68.2,65.5,30.01,East,83,3.0,13.0,91,0.00,,,0.00,meteohub,2013-04-23 08:07:00,
2013-04-23 03:12:00,68.2,65.5,30.01,SE,138,1.0,9.0,91,0.00,,,0.00,meteohub,2013-04-23 08:12:00,
2013-04-23 03:17:00,68.2,65.5,30.00,SE,137,2.0,10.0,91,0.00,,,0.00,meteohub,2013-04-23 08:17:00,
2013-04-23 03:22:00,68.2,65.5,30.00,SE,126,3.0,10.0,91,0.00,,,0.00,meteohub,2013-04-23 08:22:00,
2013-04-23 03:27:00,68.0,65.3,30.00,South,178,5.0,9.0,91,0.00,,,0.00,meteohub,2013-04-23 08:27:00,
2013-04-23 03:32:00,67.8,65.5,30.00,ESE,117,3.0,11.0,92,0.00,,,0.00,meteohub,2013-04-23 08:32:00,
2013-04-23 03:37:00,67.8,65.5,30.00,SSE,152,3.0,11.0,92,0.00,,,0.00,meteohub,2013-04-23 08:37:00,
2013-04-23 03:42:00,67.6,65.3,30.00,ESE,104,4.0,11.0,92,0.00,,,0.00,meteohub,2013-04-23 08:42:00,
2013-04-23 03:47:00,67.6,65.3,30.00,ESE,104,4.0,9.0,92,0.00,,,0.00,meteohub,2013-04-23 08:47:00,
2013-04-23 03:52:00,67.5,65.1,30.00,South,173,3.0,9.0,92,0.00,,,0.00,meteohub,2013-04-23 08:52:00,
2013-04-23 03:57:00,67.5,65.1,30.00,ESE,109,1.0,9.0,92,0.00,,,0.00,meteohub,2013-04-23 08:57:00,
2013-04-23 04:02:00,67.5,65.1,30.00,SSE,154,0.0,10.0,92,0.00,,,0.00,meteohub,2013-04-23 09:02:00,
2013-04-23 04:07:00,67.5,65.3,30.00,SE,126,0.0,10.0,93,0.00,,,0.00,meteohub,2013-04-23 09:07:00,
2013-04-23 04:12:00,67.5,65.3,30.00,SSE,148,4.0,10.0,93,0.00,,,0.00,meteohub,2013-04-23 09:12:00,
2013-04-23 04:17:00,67.5,65.3,30.00,SE,130,1.0,7.0,93,0.00,,,0.00,meteohub,2013-04-23 09:17:00,
2013-04-23 04:22:00,67.5,65.3,30.00,ESE,111,2.0,7.0,93,0.00,,,0.00,meteohub,2013-04-23 09:22:00,
2013-04-23 04:27:00,67.3,65.1,30.00,ESE,119,1.0,7.0,93,0.00,,,0.00,meteohub,2013-04-23 09:27:00,
2013-04-23 04:32:00,67.3,65.1,30.00,ESE,119,2.0,5.0,93,0.00,,,0.00,meteohub,2013-04-23 09:32:00,
2013-04-23 04:37:00,67.3,65.1,30.00,SE,143,2.0,5.0,93,0.00,,,0.00,meteohub,2013-04-23 09:37:00,
2013-04-23 04:42:00,67.3,65.1,30.01,East,101,2.0,5.0,93,0.00,,,0.00,meteohub,2013-04-23 09:42:00,
2013-04-23 04:47:00,67.3,65.1,30.01,SE,130,2.0,7.0,93,0.00,,,0.00,meteohub,2013-04-23 09:47:00,
2013-04-23 04:52:00,67.3,65.1,30.01,SE,136,4.0,7.0,93,0.00,,,0.00,meteohub,2013-04-23 09:52:00,
2013-04-23 04:57:00,67.3,65.1,30.01,East,98,6.0,8.0,93,0.00,,,0.00,meteohub,2013-04-23 09:57:00,
2013-04-23 05:02:00,67.3,65.1,30.01,ESE,107,3.0,8.0,93,0.00,,,0.00,meteohub,2013-04-23 10:02:00,
2013-04-23 05:07:00,67.5,65.3,30.01,ESE,122,1.0,8.0,93,0.00,,,0.00,meteohub,2013-04-23 10:07:00,
2013-04-23 05:12:00,67.5,65.1,30.01,SE,140,1.0,8.0,92,0.00,,,0.00,meteohub,2013-04-23 10:12:00,
2013-04-23 05:17:00,67.5,65.1,30.01,ESE,103,4.0,8.0,92,0.00,,,0.00,meteohub,2013-04-23 10:17:00,
2013-04-23 05:22:00,67.5,65.1,30.01,ESE,106,4.0,7.0,92,0.00,,,0.00,meteohub,2013-04-23 10:22:00,
2013-04-23 05:27:00,67.6,65.3,30.01,East,95,6.0,8.0,92,0.00,,,0.00,meteohub,2013-04-23 10:27:00,
2013-04-23 05:32:00,67.8,65.5,30.00,South,169,5.0,11.0,92,0.00,,,0.00,meteohub,2013-04-23 10:32:00,
2013-04-23 05:37:00,67.8,65.1,30.01,ESE,104,5.0,11.0,91,0.00,,,0.00,meteohub,2013-04-23 10:37:00,
2013-04-23 05:43:00,68.0,65.3,30.01,East,98,3.0,12.0,91,0.00,,,0.00,meteohub,2013-04-23 10:43:00,
2013-04-23 05:48:00,68.2,65.5,30.00,SSE,147,7.0,12.0,91,0.00,,,0.00,meteohub,2013-04-23 10:48:00,
2013-04-23 05:53:00,68.2,65.5,30.01,ESE,111,9.0,12.0,91,0.00,,,0.00,meteohub,2013-04-23 10:53:00,
2013-04-23 05:58:00,68.2,65.1,30.01,SE,134,4.0,12.0,90,0.00,,,0.00,meteohub,2013-04-23 10:58:00,
2013-04-23 06:03:00,68.2,65.1,30.01,ESE,114,5.0,13.0,90,0.00,,,0.00,meteohub,2013-04-23 11:03:00,
2013-04-23 06:08:00,68.2,65.1,30.01,ESE,110,2.0,13.0,90,0.00,,,0.00,meteohub,2013-04-23 11:08:00,
2013-04-23 06:13:00,68.2,65.1,30.01,SE,138,7.0,13.0,90,0.00,,,0.00,meteohub,2013-04-23 11:13:00,
2013-04-23 06:18:00,68.4,65.3,30.01,East,100,8.0,11.0,90,0.00,,,0.00,meteohub,2013-04-23 11:18:00,
2013-04-23 06:23:00,68.4,65.3,30.01,SE,130,5.0,11.0,90,0.00,,,0.00,meteohub,2013-04-23 11:23:00,
2013-04-23 06:28:00,68.4,65.3,30.01,SSE,150,4.0,13.0,90,0.00,,,0.00,meteohub,2013-04-23 11:28:00,
2013-04-23 06:33:00,68.4,65.3,30.02,East,98,7.0,13.0,90,0.00,,,0.00,meteohub,2013-04-23 11:33:00,
2013-04-23 06:38:00,68.5,65.1,30.02,ESE,111,7.0,13.0,89,0.00,,,0.00,meteohub,2013-04-23 11:38:00,
2013-04-23 06:43:00,68.5,65.1,30.02,East,93,7.0,9.0,89,0.00,,,0.00,meteohub,2013-04-23 11:43:00,
2013-04-23 06:48:00,68.5,65.1,30.02,East,95,8.0,13.0,89,0.00,,,0.00,meteohub,2013-04-23 11:48:00,
2013-04-23 06:53:00,68.7,65.3,30.02,ESE,117,4.0,13.0,89,0.00,,,0.00,meteohub,2013-04-23 11:53:00,
2013-04-23 06:58:00,68.7,65.3,30.02,SE,124,3.0,13.0,89,0.00,,,0.00,meteohub,2013-04-23 11:58:00,
2013-04-23 07:03:00,68.7,65.3,30.02,ESE,113,9.0,11.0,89,0.00,,,0.00,meteohub,2013-04-23 12:03:00,
2013-04-23 07:08:00,68.7,65.3,30.02,SE,138,4.0,10.0,89,0.00,,,0.00,meteohub,2013-04-23 12:08:00,
2013-04-23 07:13:00,68.7,65.3,30.02,ESE,119,5.0,10.0,89,0.00,,,0.00,meteohub,2013-04-23 12:13:00,
2013-04-23 07:18:00,68.7,65.3,30.03,SSE,147,5.0,10.0,89,0.00,,,0.00,meteohub,2013-04-23 12:18:00,
2013-04-23 07:23:00,68.7,65.3,30.03,SE,145,4.0,10.0,89,0.00,,,0.00,meteohub,2013-04-23 12:23:00,
2013-04-23 07:28:00,68.9,65.8,30.03,SE,138,1.0,10.0,90,0.00,,,0.00,meteohub,2013-04-23 12:28:00,
2013-04-23 07:33:00,68.9,65.8,30.03,SSE,148,4.0,10.0,90,0.00,,,0.00,meteohub,2013-04-23 12:33:00,
2013-04-23 07:38:00,68.9,65.8,30.03,ESE,107,3.0,9.0,90,0.00,,,0.00,meteohub,2013-04-23 12:38:00,
2013-04-23 07:43:00,68.7,65.7,30.03,SE,128,0.0,7.0,90,0.00,,,0.00,meteohub,2013-04-23 12:43:00,
2013-04-23 07:48:00,68.9,65.8,30.03,East,94,5.0,8.0,90,0.00,,,0.00,meteohub,2013-04-23 12:48:00,
2013-04-23 07:53:00,69.1,66.0,30.03,ESE,105,3.0,9.0,90,0.00,,,0.00,meteohub,2013-04-23 12:53:00,
2013-04-23 07:58:00,69.3,65.8,30.03,SE,132,3.0,9.0,89,0.00,,,0.00,meteohub,2013-04-23 12:58:00,
2013-04-23 08:03:00,69.3,65.8,30.03,ESE,116,7.0,8.0,89,0.00,,,0.00,meteohub,2013-04-23 13:03:00,
2013-04-23 08:08:00,69.3,65.8,30.03,SE,130,6.0,9.0,89,0.00,,,0.00,meteohub,2013-04-23 13:08:00,
2013-04-23 08:13:00,69.4,66.0,30.03,ESE,119,7.0,9.0,89,0.00,,,0.00,meteohub,2013-04-23 13:13:00,
2013-04-23 08:18:00,69.4,66.0,30.03,SE,134,3.0,9.0,89,0.00,,,0.00,meteohub,2013-04-23 13:18:00,
2013-04-23 08:23:00,69.6,66.2,30.03,SE,129,5.0,9.0,89,0.00,,,0.00,meteohub,2013-04-23 13:23:00,
2013-04-23 08:28:00,70.0,66.6,30.04,ESE,116,3.0,10.0,89,0.00,,,0.00,meteohub,2013-04-23 13:28:00,
2013-04-23 08:33:00,70.2,66.4,30.04,SE,135,2.0,13.0,88,0.00,,,0.00,meteohub,2013-04-23 13:33:00,
2013-04-23 08:38:00,70.2,66.4,30.04,SE,145,9.0,13.0,88,0.00,,,0.00,meteohub,2013-04-23 13:38:00,
2013-04-23 08:43:00,70.3,66.2,30.04,SE,134,6.0,10.0,87,0.00,,,0.00,meteohub,2013-04-23 13:43:00,
2013-04-23 08:48:00,70.5,66.4,30.04,SE,142,8.0,14.0,87,0.00,,,0.00,meteohub,2013-04-23 13:48:00,
2013-04-23 08:53:00,70.9,66.7,30.04,SSE,148,12.0,14.0,87,0.00,,,0.00,meteohub,2013-04-23 13:53:00,
2013-04-23 08:58:00,70.9,66.6,30.04,SSE,168,3.0,14.0,86,0.00,,,0.00,meteohub,2013-04-23 13:58:00,
2013-04-23 09:03:00,71.1,66.7,30.04,SE,144,3.0,13.0,86,0.00,,,0.00,meteohub,2013-04-23 14:03:00,
2013-04-23 09:08:00,71.1,66.7,30.04,SSE,153,8.0,13.0,86,0.00,,,0.00,meteohub,2013-04-23 14:08:00,
2013-04-23 09:13:00,71.2,66.6,30.05,SSE,159,7.0,12.0,85,0.00,,,0.00,meteohub,2013-04-23 14:13:00,
2013-04-23 09:18:00,71.2,66.6,30.05,SSE,151,10.0,14.0,85,0.00,,,0.00,meteohub,2013-04-23 14:18:00,
2013-04-23 09:23:00,71.2,66.9,30.05,SE,140,3.0,14.0,86,0.00,,,0.00,meteohub,2013-04-23 14:23:00,
2013-04-23 09:29:00,71.2,66.6,30.05,SE,145,11.0,14.0,85,0.00,,,0.00,meteohub,2013-04-23 14:29:00,
2013-04-23 09:34:00,71.2,66.9,30.05,SE,146,5.0,13.0,86,0.00,,,0.00,meteohub,2013-04-23 14:34:00,
2013-04-23 09:39:00,71.6,66.9,30.05,SE,134,4.0,13.0,85,0.00,,,0.00,meteohub,2013-04-23 14:39:00,
2013-04-23 09:44:00,72.0,67.3,30.05,SSE,162,6.0,12.0,85,0.00,,,0.00,meteohub,2013-04-23 14:44:00,
2013-04-23 09:49:00,72.1,67.1,30.05,SE,140,10.0,12.0,84,0.00,,,0.00,meteohub,2013-04-23 14:49:00,
2013-04-23 09:54:00,72.3,67.6,30.05,ESE,116,10.0,13.0,85,0.00,,,0.00,meteohub,2013-04-23 14:54:00,
2013-04-23 09:59:00,72.3,67.3,30.05,SE,143,11.0,13.0,84,0.00,,,0.00,meteohub,2013-04-23 14:59:00,
2013-04-23 10:04:00,72.3,67.3,30.05,East,98,5.0,12.0,84,0.00,,,0.00,meteohub,2013-04-23 15:04:00,
2013-04-23 10:09:00,72.7,67.6,30.05,SSE,160,5.0,11.0,84,0.00,,,0.00,meteohub,2013-04-23 15:09:00,
2013-04-23 10:14:00,73.2,67.8,30.05,SE,139,11.0,11.0,83,0.00,,,0.00,meteohub,2013-04-23 15:14:00,
2013-04-23 10:19:00,73.6,68.2,30.05,SE,141,10.0,11.0,83,0.00,,,0.00,meteohub,2013-04-23 15:19:00,
2013-04-23 10:24:00,73.9,67.8,30.06,SE,139,4.0,12.0,81,0.00,,,0.00,meteohub,2013-04-23 15:24:00,
2013-04-23 10:29:00,74.3,68.0,30.06,SE,136,2.0,13.0,81,0.00,,,0.00,meteohub,2013-04-23 15:29:00,
2013-04-23 10:34:00,74.5,68.2,30.06,SE,130,5.0,13.0,81,0.00,,,0.00,meteohub,2013-04-23 15:34:00,
2013-04-23 10:39:00,74.7,68.4,30.06,SSE,159,2.0,13.0,81,0.00,,,0.00,meteohub,2013-04-23 15:39:00,
2013-04-23 10:44:00,74.5,67.8,30.06,ESE,117,7.0,13.0,80,0.00,,,0.00,meteohub,2013-04-23 15:44:00,
2013-04-23 10:49:00,74.8,68.5,30.06,SE,135,5.0,11.0,81,0.00,,,0.00,meteohub,2013-04-23 15:49:00,
2013-04-23 10:54:00,75.7,69.1,30.05,SSE,161,4.0,11.0,80,0.00,,,0.00,meteohub,2013-04-23 15:54:00,
2013-04-23 10:59:00,75.9,68.5,30.05,South,188,3.0,11.0,78,0.00,,,0.00,meteohub,2013-04-23 15:59:00,
2013-04-23 11:04:00,76.3,68.9,30.05,ESE,113,12.0,12.0,78,0.00,,,0.00,meteohub,2013-04-23 16:04:00,
2013-04-23 11:09:00,76.6,69.3,30.05,South,182,4.0,12.0,78,0.00,,,0.00,meteohub,2013-04-23 16:09:00,
2013-04-23 11:14:00,76.6,68.9,30.05,SSE,164,4.0,12.0,77,0.00,,,0.00,meteohub,2013-04-23 16:14:00,
2013-04-23 11:19:00,76.5,68.7,30.05,SSE,148,7.0,12.0,77,0.00,,,0.00,meteohub,2013-04-23 16:19:00,
2013-04-23 11:24:00,76.6,69.3,30.05,ESE,115,7.0,12.0,78,0.00,,,0.00,meteohub,2013-04-23 16:24:00,
2013-04-23 11:29:00,77.0,69.3,30.05,ESE,123,5.0,12.0,77,0.00,,,0.00,meteohub,2013-04-23 16:29:00,
2013-04-23 11:34:00,77.2,69.4,30.05,South,179,4.0,11.0,77,0.00,,,0.00,meteohub,2013-04-23 16:34:00,
2013-04-23 11:39:00,77.5,68.9,30.04,SSE,163,7.0,14.0,75,0.00,,,0.00,meteohub,2013-04-23 16:39:00,
2013-04-23 11:44:00,77.4,68.9,30.04,South,169,7.0,14.0,75,0.00,,,0.00,meteohub,2013-04-23 16:44:00,
2013-04-23 11:49:00,77.4,69.3,30.04,SSE,161,7.0,14.0,76,0.00,,,0.00,meteohub,2013-04-23 16:49:00,
2013-04-23 11:54:00,77.5,69.4,30.04,SE,146,3.0,13.0,76,0.00,,,0.00,meteohub,2013-04-23 16:54:00,
2013-04-23 11:59:00,77.5,68.9,30.04,South,172,0.0,13.0,75,0.00,,,0.00,meteohub,2013-04-23 16:59:00,
2013-04-23 12:04:00,77.7,69.1,30.04,SSE,147,6.0,10.0,75,0.00,,,0.00,meteohub,2013-04-23 17:04:00,
2013-04-23 12:09:00,77.5,68.9,30.04,South,169,3.0,9.0,75,0.00,,,0.00,meteohub,2013-04-23 17:09:00,
2013-04-23 12:14:00,77.5,68.2,30.04,SSE,157,8.0,13.0,73,0.00,,,0.00,meteohub,2013-04-23 17:14:00,
2013-04-23 12:19:00,77.2,68.2,30.03,SE,144,7.0,13.0,74,0.00,,,0.00,meteohub,2013-04-23 17:19:00,
2013-04-23 12:24:00,77.5,68.5,30.03,SSE,165,9.0,13.0,74,0.00,,,0.00,meteohub,2013-04-23 17:24:00,
2013-04-23 12:29:00,77.5,68.5,30.02,SSE,161,7.0,13.0,74,0.00,,,0.00,meteohub,2013-04-23 17:29:00,
2013-04-23 12:34:00,77.7,68.4,30.02,South,176,10.0,11.0,73,0.00,,,0.00,meteohub,2013-04-23 17:34:00,
2013-04-23 12:39:00,77.7,68.4,30.02,South,185,4.0,12.0,73,0.00,,,0.00,meteohub,2013-04-23 17:39:00,
2013-04-23 12:44:00,77.9,68.9,30.02,SE,139,7.0,12.0,74,0.00,,,0.00,meteohub,2013-04-23 17:44:00,
2013-04-23 12:49:00,78.6,68.9,30.02,SSE,153,8.0,12.0,72,0.00,,,0.00,meteohub,2013-04-23 17:49:00,
2013-04-23 12:54:00,79.0,68.4,30.01,SSE,160,6.0,13.0,70,0.00,,,0.00,meteohub,2013-04-23 17:54:00,
2013-04-23 12:59:00,79.2,68.9,30.01,South,175,5.0,13.0,71,0.00,,,0.00,meteohub,2013-04-23 17:59:00,
2013-04-23 13:04:00,79.5,68.5,30.01,SSE,160,8.0,13.0,69,0.00,,,0.00,meteohub,2013-04-23 18:04:00,
2013-04-23 13:09:00,79.0,67.5,30.01,SSE,161,7.0,10.0,68,0.00,,,0.00,meteohub,2013-04-23 18:09:00,
2013-04-23 13:14:00,78.6,68.0,30.01,SSW,195,4.0,12.0,70,0.00,,,0.00,meteohub,2013-04-23 18:14:00,
2013-04-23 13:19:00,80.1,68.5,30.01,South,190,8.0,12.0,68,0.00,,,0.00,meteohub,2013-04-23 18:19:00,
2013-04-23 13:25:00,81.0,67.6,30.01,SSE,163,8.0,11.0,64,0.00,,,0.00,meteohub,2013-04-23 18:25:00,
2013-04-23 13:30:00,81.0,68.0,30.01,SSE,153,9.0,15.0,65,0.00,,,0.00,meteohub,2013-04-23 18:30:00,
2013-04-23 13:35:00,80.6,67.3,30.01,SE,143,16.0,16.0,64,0.00,,,0.00,meteohub,2013-04-23 18:35:00,
2013-04-23 13:40:00,81.0,68.5,30.01,ESE,123,11.0,16.0,66,0.00,,,0.00,meteohub,2013-04-23 18:40:00,
2013-04-23 13:45:00,81.1,68.2,30.01,South,175,5.0,16.0,65,0.00,,,0.00,meteohub,2013-04-23 18:45:00,
2013-04-23 13:50:00,81.1,67.8,30.00,SSE,165,5.0,16.0,64,0.00,,,0.00,meteohub,2013-04-23 18:50:00,
2013-04-23 13:55:00,81.3,67.5,30.00,South,174,9.0,16.0,63,0.00,,,0.00,meteohub,2013-04-23 18:55:00,
2013-04-23 14:00:00,81.5,67.6,30.00,SSE,159,3.0,17.0,63,0.00,,,0.00,meteohub,2013-04-23 19:00:00,
2013-04-23 14:05:00,81.9,68.0,30.00,South,184,5.0,14.0,63,0.00,,,0.00,meteohub,2013-04-23 19:05:00,
2013-04-23 14:10:00,82.0,68.2,30.00,SSE,150,4.0,14.0,63,0.00,,,0.00,meteohub,2013-04-23 19:10:00,
2013-04-23 14:15:00,82.2,67.8,30.00,SSE,154,5.0,14.0,62,0.00,,,0.00,meteohub,2013-04-23 19:15:00,
2013-04-23 14:20:00,82.6,68.2,30.00,SSE,167,3.0,14.0,62,0.00,,,0.00,meteohub,2013-04-23 19:20:00,
2013-04-23 14:25:00,82.6,69.1,30.00,SSE,166,7.0,14.0,64,0.00,,,0.00,meteohub,2013-04-23 19:25:00,
2013-04-23 14:30:00,82.2,67.5,29.99,SE,143,8.0,13.0,61,0.00,,,0.00,meteohub,2013-04-23 19:30:00,
2013-04-23 14:35:00,82.4,68.0,29.99,SSE,148,5.0,13.0,62,0.00,,,0.00,meteohub,2013-04-23 19:35:00,
2013-04-23 14:40:00,82.2,67.8,29.99,South,182,4.0,13.0,62,0.00,,,0.00,meteohub,2013-04-23 19:40:00,
2013-04-23 14:45:00,82.6,68.2,29.99,SSE,161,6.0,13.0,62,0.00,,,0.00,meteohub,2013-04-23 19:45:00,
2013-04-23 14:50:00,82.8,68.0,29.99,SSE,159,12.0,13.0,61,0.00,,,0.00,meteohub,2013-04-23 19:50:00,
2013-04-23 14:55:00,82.9,68.2,29.99,SW,216,6.0,12.0,61,0.00,,,0.00,meteohub,2013-04-23 19:55:00,
2013-04-23 15:00:00,82.8,68.4,29.99,South,175,1.0,12.0,62,0.00,,,0.00,meteohub,2013-04-23 20:00:00,
2013-04-23 15:05:00,82.2,68.4,29.99,SSE,154,5.0,12.0,63,0.00,,,0.00,meteohub,2013-04-23 20:05:00,
2013-04-23 15:10:00,82.2,68.9,29.98,SSE,164,5.0,11.0,64,0.00,,,0.00,meteohub,2013-04-23 20:10:00,
2013-04-23 15:15:00,82.2,68.4,29.98,SSE,150,7.0,14.0,63,0.00,,,0.00,meteohub,2013-04-23 20:15:00,
2013-04-23 15:20:00,81.9,68.5,29.98,SSE,148,8.0,14.0,64,0.00,,,0.00,meteohub,2013-04-23 20:20:00,
2013-04-23 15:25:00,81.9,68.5,29.97,SSE,160,7.0,14.0,64,0.00,,,0.00,meteohub,2013-04-23 20:25:00,
2013-04-23 15:30:00,82.2,68.9,29.97,SSW,209,7.0,11.0,64,0.00,,,0.00,meteohub,2013-04-23 20:30:00,
2013-04-23 15:35:00,82.9,68.5,29.97,SE,136,7.0,14.0,62,0.00,,,0.00,meteohub,2013-04-23 20:35:00,
2013-04-23 15:40:00,82.6,68.7,29.97,SSE,167,6.0,14.0,63,0.00,,,0.00,meteohub,2013-04-23 20:40:00,
2013-04-23 15:45:00,82.4,69.1,29.96,SSE,167,4.0,13.0,64,0.00,,,0.00,meteohub,2013-04-23 20:45:00,
2013-04-23 15:50:00,82.4,69.4,29.96,SSW,210,6.0,13.0,65,0.00,,,0.00,meteohub,2013-04-23 20:50:00,
2013-04-23 15:55:00,82.4,68.5,29.96,SSE,156,8.0,12.0,63,0.00,,,0.00,meteohub,2013-04-23 20:55:00,
2013-04-23 16:00:00,82.2,68.9,29.96,SSE,160,8.0,12.0,64,0.00,,,0.00,meteohub,2013-04-23 21:00:00,
2013-04-23 16:05:00,81.7,68.7,29.96,SE,145,11.0,13.0,65,0.00,,,0.00,meteohub,2013-04-23 21:05:00,
2013-04-23 16:10:00,81.7,68.4,29.96,ESE,109,11.0,15.0,64,0.00,,,0.00,meteohub,2013-04-23 21:10:00,
2013-04-23 16:15:00,81.9,68.5,29.96,SE,143,8.0,15.0,64,0.00,,,0.00,meteohub,2013-04-23 21:15:00,
2013-04-23 16:20:00,82.0,67.6,29.96,SSE,147,6.0,15.0,62,0.00,,,0.00,meteohub,2013-04-23 21:20:00,
2013-04-23 16:25:00,82.2,67.8,29.96,SSE,163,6.0,13.0,62,0.00,,,0.00,meteohub,2013-04-23 21:25:00,
2013-04-23 16:30:00,82.0,68.2,29.96,SSE,158,11.0,12.0,63,0.00,,,0.00,meteohub,2013-04-23 21:30:00,
2013-04-23 16:35:00,82.0,67.6,29.96,SSE,157,6.0,14.0,62,0.00,,,0.00,meteohub,2013-04-23 21:35:00,
2013-04-23 16:40:00,81.9,68.5,29.96,South,184,4.0,14.0,64,0.00,,,0.00,meteohub,2013-04-23 21:40:00,
2013-04-23 16:45:00,82.2,67.8,29.95,South,169,9.0,14.0,62,0.00,,,0.00,meteohub,2013-04-23 21:45:00,
2013-04-23 16:50:00,82.6,68.7,29.95,SSE,153,8.0,12.0,63,0.00,,,0.00,meteohub,2013-04-23 21:50:00,
2013-04-23 16:55:00,81.9,67.6,29.95,South,188,7.0,12.0,62,0.00,,,0.00,meteohub,2013-04-23 21:55:00,
2013-04-23 17:00:00,81.0,67.6,29.95,South,187,4.0,11.0,64,0.00,,,0.00,meteohub,2013-04-23 22:00:00,
2013-04-23 17:05:00,81.1,67.8,29.95,SSE,164,6.0,12.0,64,0.00,,,0.00,meteohub,2013-04-23 22:05:00,
2013-04-23 17:10:00,81.3,68.4,29.95,SSE,157,10.0,12.0,65,0.00,,,0.00,meteohub,2013-04-23 22:10:00,
2013-04-23 17:16:00,81.7,68.7,29.95,South,189,6.0,15.0,65,0.00,,,0.00,meteohub,2013-04-23 22:16:00,
2013-04-23 17:21:00,81.9,68.5,29.95,South,190,8.0,15.0,64,0.00,,,0.00,meteohub,2013-04-23 22:21:00,
2013-04-23 17:26:00,81.7,69.3,29.95,SE,145,12.0,15.0,66,0.00,,,0.00,meteohub,2013-04-23 22:26:00,
2013-04-23 17:31:00,81.3,68.9,29.95,SSE,154,6.0,15.0,66,0.00,,,0.00,meteohub,2013-04-23 22:31:00,
2013-04-23 17:36:00,80.8,68.7,29.95,SSE,154,9.0,15.0,67,0.00,,,0.00,meteohub,2013-04-23 22:36:00,
2013-04-23 17:41:00,80.1,68.2,29.95,SE,144,8.0,15.0,67,0.00,,,0.00,meteohub,2013-04-23 22:41:00,
2013-04-23 17:46:00,80.1,68.2,29.95,SSE,157,4.0,13.0,67,0.00,,,0.00,meteohub,2013-04-23 22:46:00,
2013-04-23 17:51:00,80.2,69.1,29.95,SSE,159,7.0,13.0,69,0.00,,,0.00,meteohub,2013-04-23 22:51:00,
2013-04-23 17:56:00,79.9,68.4,29.95,SSE,157,5.0,11.0,68,0.00,,,0.00,meteohub,2013-04-23 22:56:00,
2013-04-23 18:01:00,79.9,68.4,29.95,SSE,167,6.0,11.0,68,0.00,,,0.00,meteohub,2013-04-23 23:01:00,
2013-04-23 18:06:00,79.9,68.4,29.95,South,186,3.0,11.0,68,0.00,,,0.00,meteohub,2013-04-23 23:06:00,
2013-04-23 18:11:00,80.1,68.9,29.94,SSW,211,5.0,12.0,69,0.00,,,0.00,meteohub,2013-04-23 23:11:00,
2013-04-23 18:16:00,80.2,69.1,29.94,South,169,3.0,12.0,69,0.00,,,0.00,meteohub,2013-04-23 23:16:00,
2013-04-23 18:21:00,79.9,68.7,29.94,SSE,148,10.0,13.0,69,0.00,,,0.00,meteohub,2013-04-23 23:21:00,
2013-04-23 18:26:00,79.5,68.9,29.94,SE,142,6.0,13.0,70,0.00,,,0.00,meteohub,2013-04-23 23:26:00,
2013-04-23 18:31:00,79.2,68.5,29.94,SSE,166,7.0,13.0,70,0.00,,,0.00,meteohub,2013-04-23 23:31:00,
2013-04-23 18:36:00,79.0,69.3,29.94,South,174,5.0,10.0,72,0.00,,,0.00,meteohub,2013-04-23 23:36:00,
2013-04-23 18:41:00,78.8,69.1,29.94,SSE,160,5.0,10.0,72,0.00,,,0.00,meteohub,2013-04-23 23:41:00,
2013-04-23 18:46:00,78.6,69.3,29.94,South,178,2.0,10.0,73,0.00,,,0.00,meteohub,2013-04-23 23:46:00,
2013-04-23 18:51:00,78.4,69.1,29.94,SSE,155,4.0,9.0,73,0.00,,,0.00,meteohub,2013-04-23 23:51:00,
2013-04-23 18:56:00,78.3,69.3,29.95,SSE,154,4.0,9.0,74,0.00,,,0.00,meteohub,2013-04-23 23:56:00,
2013-04-23 19:01:00,78.1,69.1,29.94,SE,133,6.0,11.0,74,0.00,,,0.00,meteohub,2013-04-24 00:01:00,
2013-04-23 19:06:00,78.3,69.6,29.95,SSE,152,7.0,11.0,75,0.00,,,0.00,meteohub,2013-04-24 00:06:00,
2013-04-23 19:11:00,78.1,69.4,29.95,SSE,152,2.0,11.0,75,0.00,,,0.00,meteohub,2013-04-24 00:11:00,
2013-04-23 19:16:00,77.5,68.9,29.95,SSE,148,7.0,11.0,75,0.00,,,0.00,meteohub,2013-04-24 00:16:00,
2013-04-23 19:21:00,77.2,69.1,29.95,SSE,161,5.0,11.0,76,0.00,,,0.00,meteohub,2013-04-24 00:21:00,
2013-04-23 19:26:00,76.8,69.1,29.95,SE,139,6.0,9.0,77,0.00,,,0.00,meteohub,2013-04-24 00:26:00,
2013-04-23 19:31:00,76.6,69.3,29.95,SSE,159,3.0,9.0,78,0.00,,,0.00,meteohub,2013-04-24 00:31:00,
2013-04-23 19:36:00,76.5,69.1,29.95,SE,141,2.0,9.0,78,0.00,,,0.00,meteohub,2013-04-24 00:36:00,
2013-04-23 19:41:00,76.3,69.3,29.96,SSE,163,3.0,9.0,79,0.00,,,0.00,meteohub,2013-04-24 00:41:00,
2013-04-23 19:46:00,75.9,69.3,29.96,SSE,159,4.0,8.0,80,0.00,,,0.00,meteohub,2013-04-24 00:46:00,
2013-04-23 19:51:00,75.9,69.3,29.96,South,190,4.0,7.0,80,0.00,,,0.00,meteohub,2013-04-24 00:51:00,
2013-04-23 19:56:00,76.1,69.8,29.96,South,174,5.0,6.0,81,0.00,,,0.00,meteohub,2013-04-24 00:56:00,
2013-04-23 20:01:00,76.3,70.0,29.96,South,189,5.0,10.0,81,0.00,,,0.00,meteohub,2013-04-24 01:01:00,
2013-04-23 20:06:00,76.3,69.6,29.97,SSE,158,4.0,10.0,80,0.00,,,0.00,meteohub,2013-04-24 01:06:00,
2013-04-23 20:11:00,76.1,69.4,29.97,South,178,5.0,10.0,80,0.00,,,0.00,meteohub,2013-04-24 01:11:00,
2013-04-23 20:16:00,75.9,69.6,29.97,SSW,192,6.0,9.0,81,0.00,,,0.00,meteohub,2013-04-24 01:16:00,
2013-04-23 20:21:00,75.7,69.4,29.97,South,182,5.0,8.0,81,0.00,,,0.00,meteohub,2013-04-24 01:21:00,
2013-04-23 20:26:00,75.7,69.4,29.98,SSW,209,3.0,8.0,81,0.00,,,0.00,meteohub,2013-04-24 01:26:00,
2013-04-23 20:31:00,75.6,69.6,29.98,SSE,165,1.0,7.0,82,0.00,,,0.00,meteohub,2013-04-24 01:31:00,
2013-04-23 20:36:00,75.6,69.6,29.98,South,171,2.0,8.0,82,0.00,,,0.00,meteohub,2013-04-24 01:36:00,
2013-04-23 20:41:00,75.4,69.4,29.98,South,181,3.0,8.0,82,0.00,,,0.00,meteohub,2013-04-24 01:41:00,
2013-04-23 20:47:00,75.2,69.6,29.99,SSE,159,2.0,7.0,83,0.00,,,0.00,meteohub,2013-04-24 01:47:00,
2013-04-23 20:52:00,74.8,69.3,29.99,SSE,167,5.0,9.0,83,0.00,,,0.00,meteohub,2013-04-24 01:52:00,
2013-04-23 20:57:00,74.5,68.9,29.99,SSE,160,7.0,9.0,83,0.00,,,0.00,meteohub,2013-04-24 01:57:00,
2013-04-23 21:02:00,74.3,69.1,29.99,South,180,2.0,8.0,84,0.00,,,0.00,meteohub,2013-04-24 02:02:00,
2013-04-23 21:07:00,74.1,68.9,29.99,South,180,2.0,8.0,84,0.00,,,0.00,meteohub,2013-04-24 02:07:00,
2013-04-23 21:12:00,74.1,69.3,29.99,SSE,160,5.0,8.0,85,0.00,,,0.00,meteohub,2013-04-24 02:12:00,
2013-04-23 21:17:00,74.5,69.3,29.99,South,169,5.0,13.0,84,0.00,,,0.00,meteohub,2013-04-24 02:17:00,
2013-04-23 21:22:00,74.3,68.7,30.00,SSE,152,9.0,15.0,83,0.00,,,0.00,meteohub,2013-04-24 02:22:00,
2013-04-23 21:27:00,74.1,68.9,30.00,SE,138,8.0,15.0,84,0.00,,,0.00,meteohub,2013-04-24 02:27:00,
2013-04-23 21:32:00,74.1,69.3,30.00,SSE,153,9.0,15.0,85,0.00,,,0.00,meteohub,2013-04-24 02:32:00,
2013-04-23 21:37:00,74.1,69.3,30.00,SE,145,7.0,12.0,85,0.00,,,0.00,meteohub,2013-04-24 02:37:00,
2013-04-23 21:42:00,73.9,69.1,30.00,ESE,107,5.0,12.0,85,0.00,,,0.00,meteohub,2013-04-24 02:42:00,
2013-04-23 21:47:00,73.8,68.9,30.01,SE,142,5.0,11.0,85,0.00,,,0.00,meteohub,2013-04-24 02:47:00,
2013-04-23 21:52:00,73.6,69.1,30.00,SSE,153,7.0,13.0,86,0.00,,,0.00,meteohub,2013-04-24 02:52:00,
2013-04-23 21:57:00,73.6,69.1,30.00,SE,140,5.0,13.0,86,0.00,,,0.00,meteohub,2013-04-24 02:57:00,
2013-04-23 22:02:00,73.4,69.3,30.00,SSE,159,6.0,13.0,87,0.00,,,0.00,meteohub,2013-04-24 03:02:00,
2013-04-23 22:07:00,73.2,69.1,30.00,SSE,163,9.0,13.0,87,0.00,,,0.00,meteohub,2013-04-24 03:07:00,
2013-04-23 22:12:00,73.2,69.1,30.00,SSE,164,8.0,13.0,87,0.00,,,0.00,meteohub,2013-04-24 03:12:00,
2013-04-23 22:17:00,73.2,69.1,30.01,SE,136,10.0,14.0,87,0.00,,,0.00,meteohub,2013-04-24 03:17:00,
2013-04-23 22:22:00,73.0,68.9,30.00,SSE,159,7.0,14.0,87,0.00,,,0.00,meteohub,2013-04-24 03:22:00,
2013-04-23 22:27:00,73.0,69.3,30.01,SSE,159,6.0,15.0,88,0.00,,,0.00,meteohub,2013-04-24 03:27:00,
2013-04-23 22:32:00,72.9,69.1,30.00,SSE,149,9.0,15.0,88,0.00,,,0.00,meteohub,2013-04-24 03:32:00,
2013-04-23 22:38:00,72.9,69.1,30.01,SSE,159,3.0,15.0,88,0.00,,,0.00,meteohub,2013-04-24 03:38:00,
2013-04-23 22:43:00,72.9,69.1,30.01,South,169,3.0,12.0,88,0.00,,,0.00,meteohub,2013-04-24 03:43:00,
2013-04-23 22:48:00,72.7,69.3,30.01,SSE,159,4.0,12.0,89,0.00,,,0.00,meteohub,2013-04-24 03:48:00,
2013-04-23 22:53:00,72.7,69.3,30.01,SE,138,7.0,10.0,89,0.00,,,0.00,meteohub,2013-04-24 03:53:00,
2013-04-23 22:58:00,72.5,69.1,30.01,SE,137,6.0,10.0,89,0.00,,,0.00,meteohub,2013-04-24 03:58:00,
2013-04-23 23:01:00,72.3,68.9,30.01,SSE,157,2.0,9.0,89,0.00,,,0.00,meteohub,2013-04-24 04:01:00,
2013-04-23 23:02:00,72.3,68.9,30.01,SSE,147,4.0,9.0,89,0.00,,,0.00,meteohub,2013-04-24 04:02:00,
2013-04-23 23:07:00,72.3,68.9,30.01,SSE,155,5.0,9.0,89,0.00,,,0.00,meteohub,2013-04-24 04:07:00,
2013-04-23 23:12:00,72.3,68.9,30.01,ESE,123,2.0,8.0,89,0.00,,,0.00,meteohub,2013-04-24 04:12:00,
2013-04-23 23:17:00,72.3,69.3,30.01,SE,135,8.0,8.0,90,0.00,,,0.00,meteohub,2013-04-24 04:17:00,
2013-04-23 23:22:00,72.3,69.3,30.01,SE,127,8.0,9.0,90,0.00,,,0.00,meteohub,2013-04-24 04:22:00,
2013-04-23 23:27:00,72.3,69.3,30.01,SE,144,7.0,11.0,90,0.00,,,0.00,meteohub,2013-04-24 04:27:00,
2013-04-23 23:32:00,72.3,69.3,30.01,SE,143,11.0,12.0,90,0.00,,,0.00,meteohub,2013-04-24 04:32:00,
2013-04-23 23:37:00,72.3,69.3,30.01,SE,136,7.0,12.0,90,0.00,,,0.00,meteohub,2013-04-24 04:37:00,
2013-04-23 23:42:00,72.3,69.3,30.01,SE,145,5.0,13.0,90,0.00,,,0.00,meteohub,2013-04-24 04:42:00,
2013-04-23 23:47:00,72.3,69.3,30.01,SSE,148,14.0,14.0,90,0.00,,,0.00,meteohub,2013-04-24 04:47:00,
2013-04-23 23:52:00,72.3,69.3,30.01,SSE,155,6.0,14.0,90,0.00,,,0.00,meteohub,2013-04-24 04:52:00,
2013-04-23 23:57:00,72.1,69.4,30.01,SSE,152,5.0,14.0,91,0.00,,,0.00,meteohub,2013-04-24 04:57:00,